WAT5327 KSFO-KLAX

Flight info

Callsign WAT5327
Flight time 1h 2m
Altitude 37000
Route WESLA5 SUSEY EBAYE BURGL IRNMN2
Aircraft A319/M-SDE3FGHIRWY/LB1

Departure

Time 2026-05-04 18:17
Airport San Francisco International Airport (KSFO)

Arrival

Time 2026-05-04 19:19
Airport Los Angeles International Airport (KLAX)
Time Latitude Longitude Altitude Speed Heading
2026-05-04 17:58 37.61088 -122.38505 20 ft 0 kts 297°
2026-05-04 18:08 37.61088 -122.38504 19 ft 2 kts 296°
2026-05-04 18:08 37.61075 -122.38483 19 ft 4 kts 348°
2026-05-04 18:08 37.61051 -122.38487 19 ft 4 kts 28°
2026-05-04 18:08 37.61041 -122.38494 21 ft 1 kts 31°
2026-05-04 18:09 37.61041 -122.38495 21 ft 0 kts 31°
2026-05-04 18:11 37.61045 -122.38492 19 ft 3 kts 31°
2026-05-04 18:11 37.61084 -122.38461 19 ft 10 kts 31°
2026-05-04 18:11 37.61137 -122.38387 18 ft 13 kts 87°
2026-05-04 18:11 37.61156 -122.38299 19 ft 13 kts 32°
2026-05-04 18:12 37.61258 -122.38233 16 ft 20 kts 27°
2026-05-04 18:12 37.61384 -122.38144 17 ft 16 kts 38°
2026-05-04 18:12 37.61372 -122.38007 16 ft 20 kts 115°
2026-05-04 18:12 37.61301 -122.37830 16 ft 25 kts 118°
2026-05-04 18:13 37.61228 -122.37627 18 ft 24 kts 98°
2026-05-04 18:13 37.61315 -122.37455 22 ft 27 kts 30°
2026-05-04 18:13 37.61551 -122.37118 22 ft 31 kts 109°
2026-05-04 18:14 37.61439 -122.36889 21 ft 28 kts 131°
2026-05-04 18:14 37.61312 -122.36665 19 ft 35 kts 117°
2026-05-04 18:14 37.61193 -122.36371 18 ft 36 kts 117°
2026-05-04 18:15 37.61057 -122.35954 19 ft 6 kts 60°
2026-05-04 18:15 37.61058 -122.35953 19 ft 0 kts 60°
2026-05-04 18:15 37.61061 -122.35945 21 ft 4 kts 58°
2026-05-04 18:16 37.61101 -122.35899 18 ft 11 kts 30°
2026-05-04 18:16 37.61185 -122.35899 19 ft 15 kts 327°
2026-05-04 18:16 37.61279 -122.36102 16 ft 54 kts 298°
2026-05-04 18:17 37.62036 -122.37934 152 ft 163 kts 295°
2026-05-04 18:17 37.62570 -122.39210 861 ft 165 kts 296°
2026-05-04 18:17 37.63693 -122.41793 2389 ft 182 kts 296°
2026-05-04 18:18 37.64342 -122.43293 3077 ft 207 kts 297°
2026-05-04 18:18 37.65076 -122.44960 3896 ft 228 kts 298°
2026-05-04 18:18 37.65869 -122.46750 4946 ft 239 kts 298°
2026-05-04 18:18 37.66677 -122.48633 5927 ft 251 kts 293°
2026-05-04 18:19 37.66048 -122.52976 7474 ft 277 kts 222°
2026-05-04 18:19 37.64369 -122.54124 8417 ft 279 kts 188°
2026-05-04 18:19 37.62434 -122.53961 9371 ft 283 kts 162°
2026-05-04 18:20 37.60595 -122.53030 10298 ft 290 kts 152°
2026-05-04 18:20 37.58710 -122.51866 10723 ft 313 kts 152°
2026-05-04 18:20 37.56721 -122.50616 11402 ft 324 kts 151°
2026-05-04 18:20 37.54662 -122.49398 12242 ft 330 kts 156°
2026-05-04 18:21 37.52472 -122.48427 13110 ft 336 kts 161°
2026-05-04 18:21 37.50251 -122.47478 13947 ft 340 kts 155°
2026-05-04 18:21 37.48174 -122.46047 14694 ft 342 kts 142°
2026-05-04 18:21 37.46415 -122.44031 15481 ft 343 kts 131°
2026-05-04 18:22 37.44788 -122.41831 16302 ft 345 kts 130°
2026-05-04 18:22 37.43179 -122.39617 17112 ft 348 kts 130°
2026-05-04 18:22 37.41520 -122.37325 17893 ft 351 kts 130°
2026-05-04 18:22 37.39887 -122.35082 18626 ft 354 kts 130°
2026-05-04 18:23 37.38209 -122.32794 19315 ft 357 kts 129°
2026-05-04 18:23 37.36517 -122.30492 20010 ft 361 kts 129°
2026-05-04 18:23 37.34802 -122.28164 20701 ft 364 kts 129°
2026-05-04 18:23 37.33071 -122.25819 21400 ft 368 kts 129°
2026-05-04 18:24 37.31323 -122.23452 22071 ft 371 kts 129°
2026-05-04 18:24 37.29559 -122.21064 22732 ft 374 kts 128°
2026-05-04 18:24 37.27784 -122.18665 23428 ft 377 kts 128°
2026-05-04 18:24 37.25992 -122.16245 24038 ft 380 kts 129°
2026-05-04 18:25 37.24186 -122.13806 24600 ft 384 kts 129°
2026-05-04 18:25 37.22356 -122.11336 25135 ft 387 kts 129°
2026-05-04 18:25 37.20510 -122.08851 25643 ft 391 kts 129°
2026-05-04 18:25 37.18648 -122.06349 26132 ft 395 kts 129°
2026-05-04 18:26 37.16761 -122.03809 26619 ft 399 kts 130°
2026-05-04 18:26 37.14863 -122.01258 27126 ft 403 kts 130°
2026-05-04 18:26 37.12943 -121.98678 27604 ft 408 kts 131°
2026-05-04 18:26 37.10997 -121.96062 28066 ft 412 kts 131°
2026-05-04 18:27 37.09032 -121.93423 28539 ft 416 kts 131°
2026-05-04 18:27 37.07053 -121.90765 29021 ft 420 kts 131°
2026-05-04 18:27 37.05050 -121.88081 29499 ft 423 kts 131°
2026-05-04 18:27 37.03054 -121.85410 29976 ft 427 kts 131°
2026-05-04 18:28 37.01019 -121.82689 30385 ft 430 kts 132°
2026-05-04 18:28 36.98964 -121.79939 30739 ft 435 kts 134°
2026-05-04 18:28 36.96883 -121.77156 30983 ft 441 kts 134°
2026-05-04 18:28 36.94774 -121.74341 31310 ft 445 kts 135°
2026-05-04 18:29 36.92642 -121.71500 31659 ft 449 kts 135°
2026-05-04 18:29 36.90501 -121.68647 32004 ft 452 kts 135°
2026-05-04 18:29 36.88349 -121.65780 32350 ft 455 kts 136°
2026-05-04 18:29 36.86172 -121.62886 32704 ft 457 kts 136°
2026-05-04 18:30 36.81816 -121.57105 33651 ft 457 kts 138°
2026-05-04 18:30 36.79641 -121.54220 34129 ft 457 kts 138°
2026-05-04 18:30 36.77463 -121.51334 34539 ft 456 kts 139°
2026-05-04 18:31 36.75293 -121.48462 34960 ft 455 kts 139°
2026-05-04 18:31 36.73122 -121.45592 35381 ft 454 kts 139°
2026-05-04 18:31 36.70954 -121.42727 35800 ft 453 kts 139°
2026-05-04 18:31 36.68792 -121.39873 36206 ft 453 kts 140°
2026-05-04 18:32 36.66634 -121.37022 36618 ft 452 kts 140°
2026-05-04 18:32 36.64479 -121.34176 36973 ft 452 kts 140°
2026-05-04 18:32 36.62330 -121.31341 37065 ft 447 kts 140°
2026-05-04 18:33 36.58104 -121.25783 37066 ft 439 kts 140°
2026-05-04 18:33 36.54617 -121.21217 37077 ft 437 kts 140°
2026-05-04 18:34 36.50437 -121.15747 37069 ft 436 kts 141°
2026-05-04 18:34 36.46266 -121.10285 37067 ft 435 kts 141°
2026-05-04 18:35 36.42112 -121.04821 37056 ft 436 kts 140°
2026-05-04 18:35 36.38111 -120.99138 37053 ft 438 kts 138°
2026-05-04 18:36 36.34190 -120.93348 37042 ft 438 kts 139°
2026-05-04 18:36 36.30242 -120.87605 37047 ft 437 kts 139°
2026-05-04 18:37 36.26265 -120.81914 37050 ft 436 kts 139°
2026-05-04 18:37 36.22280 -120.76242 37041 ft 436 kts 140°
2026-05-04 18:38 36.18295 -120.70578 37036 ft 436 kts 140°
2026-05-04 18:38 36.14320 -120.64909 37043 ft 436 kts 140°
2026-05-04 18:39 36.10351 -120.59253 37048 ft 436 kts 140°
2026-05-04 18:39 36.06370 -120.53608 37032 ft 436 kts 140°
2026-05-04 18:40 36.02376 -120.47956 37045 ft 436 kts 141°
2026-05-04 18:40 35.98411 -120.42354 37054 ft 436 kts 140°
2026-05-04 18:41 35.94391 -120.36666 37041 ft 437 kts 140°
2026-05-04 18:41 35.90424 -120.31057 37038 ft 436 kts 141°
2026-05-04 18:42 35.86252 -120.25739 37045 ft 423 kts 152°
2026-05-04 18:42 35.81380 -120.21898 37050 ft 414 kts 158°
2026-05-04 18:43 35.76464 -120.18198 37036 ft 414 kts 158°
2026-05-04 18:43 35.71543 -120.14502 37039 ft 415 kts 158°
2026-05-04 18:44 35.66619 -120.10796 37022 ft 415 kts 158°
2026-05-04 18:44 35.61696 -120.07078 37032 ft 415 kts 158°
2026-05-04 18:45 35.56768 -120.03354 37038 ft 417 kts 157°
2026-05-04 18:45 35.51809 -119.99626 37048 ft 418 kts 157°
2026-05-04 18:46 35.46848 -119.95887 37050 ft 418 kts 157°
2026-05-04 18:46 35.41927 -119.92188 37041 ft 418 kts 157°
2026-05-04 18:47 35.36968 -119.88472 37032 ft 418 kts 157°
2026-05-04 18:47 35.31997 -119.84750 37033 ft 419 kts 157°
2026-05-04 18:47 35.29484 -119.82873 36848 ft 428 kts 156°
2026-05-04 18:48 35.27049 -119.80732 36445 ft 433 kts 152°
2026-05-04 18:48 35.24660 -119.78491 35978 ft 433 kts 152°
2026-05-04 18:48 35.22274 -119.76252 35454 ft 433 kts 152°
2026-05-04 18:48 35.19888 -119.74014 34996 ft 431 kts 153°
2026-05-04 18:49 35.17509 -119.71781 34496 ft 431 kts 153°
2026-05-04 18:49 35.15132 -119.69557 33981 ft 430 kts 154°
2026-05-04 18:49 35.12757 -119.67341 33431 ft 429 kts 154°
2026-05-04 18:49 35.10395 -119.65141 32916 ft 425 kts 154°
2026-05-04 18:50 35.08107 -119.63015 32434 ft 422 kts 154°
2026-05-04 18:50 35.05782 -119.60850 31937 ft 419 kts 155°
2026-05-04 18:50 35.03479 -119.58704 31448 ft 414 kts 155°
2026-05-04 18:50 35.01199 -119.56580 30979 ft 410 kts 155°
2026-05-04 18:51 34.98938 -119.54481 30519 ft 406 kts 156°
2026-05-04 18:51 34.96695 -119.52403 30046 ft 403 kts 156°
2026-05-04 18:51 34.94479 -119.50349 29572 ft 398 kts 156°
2026-05-04 18:51 34.92288 -119.48322 29148 ft 392 kts 156°
2026-05-04 18:52 34.90127 -119.46329 28729 ft 387 kts 156°
2026-05-04 18:52 34.87984 -119.44388 28324 ft 382 kts 156°
2026-05-04 18:52 34.85850 -119.42482 27900 ft 378 kts 157°
2026-05-04 18:52 34.83738 -119.40609 27525 ft 374 kts 157°
2026-05-04 18:53 34.81641 -119.38752 27123 ft 372 kts 157°
2026-05-04 18:53 34.79557 -119.36902 26738 ft 369 kts 157°
2026-05-04 18:53 34.77493 -119.35066 26351 ft 367 kts 157°
2026-05-04 18:53 34.75437 -119.33232 25969 ft 365 kts 156°
2026-05-04 18:54 34.73399 -119.31421 25581 ft 362 kts 156°
2026-05-04 18:54 34.71357 -119.29627 25206 ft 361 kts 157°
2026-05-04 18:54 34.69326 -119.27855 24818 ft 359 kts 157°
2026-05-04 18:54 34.67297 -119.26094 24436 ft 358 kts 156°
2026-05-04 18:55 34.65269 -119.24334 24051 ft 358 kts 156°
2026-05-04 18:55 34.61233 -119.20852 23115 ft 358 kts 156°
2026-05-04 18:55 34.59207 -119.19108 22655 ft 356 kts 155°
2026-05-04 18:56 34.57191 -119.17374 22212 ft 354 kts 155°
2026-05-04 18:56 34.55193 -119.15648 21769 ft 352 kts 154°
2026-05-04 18:56 34.53214 -119.13908 21326 ft 350 kts 153°
2026-05-04 18:56 34.51250 -119.12160 20882 ft 349 kts 152°
2026-05-04 18:57 34.49298 -119.10416 20434 ft 349 kts 152°
2026-05-04 18:57 34.47346 -119.08679 20007 ft 347 kts 152°
2026-05-04 18:57 34.45402 -119.06953 19580 ft 347 kts 151°
2026-05-04 18:57 34.43464 -119.05237 19211 ft 343 kts 151°
2026-05-04 18:58 34.41524 -119.03545 18848 ft 342 kts 151°
2026-05-04 18:58 34.39602 -119.01881 18500 ft 338 kts 150°
2026-05-04 18:58 34.37704 -119.00239 18173 ft 333 kts 150°
2026-05-04 18:58 34.35825 -118.98614 17712 ft 332 kts 149°
2026-05-04 18:59 34.33959 -118.96959 17101 ft 332 kts 148°
2026-05-04 18:59 34.32111 -118.95287 16527 ft 331 kts 148°
2026-05-04 18:59 34.30285 -118.93614 16021 ft 326 kts 148°
2026-05-04 18:59 34.28501 -118.91971 15629 ft 319 kts 148°
2026-05-04 19:00 34.26747 -118.90361 15246 ft 313 kts 148°
2026-05-04 19:00 34.25023 -118.88787 14865 ft 308 kts 148°
2026-05-04 19:00 34.23324 -118.87238 14500 ft 304 kts 148°
2026-05-04 19:00 34.21646 -118.85713 14125 ft 300 kts 148°
2026-05-04 19:01 34.19986 -118.84208 13754 ft 296 kts 148°
2026-05-04 19:01 34.18344 -118.82723 13379 ft 293 kts 147°
2026-05-04 19:01 34.16748 -118.81279 13014 ft 288 kts 147°
2026-05-04 19:01 34.15219 -118.79671 12685 ft 301 kts 142°
2026-05-04 19:02 34.13637 -118.77962 12330 ft 308 kts 141°
2026-05-04 19:02 34.12045 -118.76238 11976 ft 307 kts 142°
2026-05-04 19:02 34.10458 -118.74513 11633 ft 306 kts 142°
2026-05-04 19:02 34.08882 -118.72801 11289 ft 304 kts 142°
2026-05-04 19:03 34.07317 -118.71100 10956 ft 302 kts 142°
2026-05-04 19:03 34.05754 -118.69399 10612 ft 302 kts 142°
2026-05-04 19:03 34.04254 -118.67640 10328 ft 299 kts 133°
2026-05-04 19:03 34.03178 -118.65516 10031 ft 296 kts 114°
2026-05-04 19:04 34.02661 -118.63141 9860 ft 294 kts 98°
2026-05-04 19:04 34.02437 -118.60695 9630 ft 294 kts 96°
2026-05-04 19:04 34.02211 -118.58246 9329 ft 294 kts 97°
2026-05-04 19:04 34.01984 -118.55806 9028 ft 292 kts 97°
2026-05-04 19:05 34.01750 -118.53371 8471 ft 297 kts 97°
2026-05-04 19:05 34.01516 -118.50905 7930 ft 294 kts 97°
2026-05-04 19:05 34.01288 -118.48509 7681 ft 280 kts 97°
2026-05-04 19:05 34.01099 -118.46239 7547 ft 264 kts 91°
2026-05-04 19:06 34.01288 -118.44102 7316 ft 253 kts 77°
2026-05-04 19:06 34.01642 -118.42043 6952 ft 248 kts 77°
2026-05-04 19:06 34.01995 -118.40019 6502 ft 245 kts 76°
2026-05-04 19:06 34.02343 -118.38015 6003 ft 244 kts 77°
2026-05-04 19:07 34.02686 -118.36018 5522 ft 241 kts 79°
2026-05-04 19:07 34.02957 -118.34038 5068 ft 237 kts 83°
2026-05-04 19:07 34.03166 -118.32080 4598 ft 235 kts 84°
2026-05-04 19:07 34.03363 -118.30130 4099 ft 234 kts 83°
2026-05-04 19:08 34.03560 -118.28198 3667 ft 230 kts 84°
2026-05-04 19:08 34.03756 -118.26300 3609 ft 230 kts 84°
2026-05-04 19:08 34.03959 -118.24383 3598 ft 231 kts 84°
2026-05-04 19:08 34.04167 -118.22464 3603 ft 231 kts 83°
2026-05-04 19:09 34.04376 -118.20555 3593 ft 229 kts 83°
2026-05-04 19:09 34.04588 -118.18623 3595 ft 235 kts 82°
2026-05-04 19:09 34.04803 -118.16671 3594 ft 235 kts 83°
2026-05-04 19:09 34.05018 -118.14713 3598 ft 235 kts 82°
2026-05-04 19:10 34.05234 -118.12759 3599 ft 236 kts 83°
2026-05-04 19:10 34.05453 -118.10795 3603 ft 237 kts 83°
2026-05-04 19:10 34.05670 -118.08826 3603 ft 237 kts 83°
2026-05-04 19:10 34.05637 -118.06878 3595 ft 231 kts 109°
2026-05-04 19:11 34.04792 -118.05276 3605 ft 226 kts 143°
2026-05-04 19:11 34.03474 -118.04559 3593 ft 201 kts 179°
2026-05-04 19:11 34.02228 -118.04908 3589 ft 176 kts 218°
2026-05-04 19:11 34.01386 -118.05860 3612 ft 159 kts 230°
2026-05-04 19:12 34.00667 -118.06849 3597 ft 154 kts 231°
2026-05-04 19:12 33.99256 -118.08811 3595 ft 156 kts 232°
2026-05-04 19:12 33.98537 -118.09798 3593 ft 157 kts 230°
2026-05-04 19:13 33.97822 -118.10801 3600 ft 158 kts 231°
2026-05-04 19:13 33.97107 -118.11796 3596 ft 156 kts 231°
2026-05-04 19:13 33.96428 -118.12835 3588 ft 155 kts 244°
2026-05-04 19:13 33.96174 -118.14060 3603 ft 153 kts 263°
2026-05-04 19:14 33.96049 -118.15325 3600 ft 151 kts 263°
2026-05-04 19:14 33.95924 -118.16580 3564 ft 152 kts 263°
2026-05-04 19:14 33.95798 -118.17847 3438 ft 154 kts 262°
2026-05-04 19:14 33.95670 -118.19141 3269 ft 158 kts 262°
2026-05-04 19:15 33.95535 -118.20483 3050 ft 163 kts 262°
2026-05-04 19:15 33.95395 -118.21861 2824 ft 168 kts 261°
2026-05-04 19:15 33.95255 -118.23275 2595 ft 169 kts 262°
2026-05-04 19:15 33.95115 -118.24658 2366 ft 162 kts 262°
2026-05-04 19:16 33.94983 -118.25968 2166 ft 156 kts 262°
2026-05-04 19:16 33.94852 -118.27265 1960 ft 156 kts 262°
2026-05-04 19:16 33.94722 -118.28546 1748 ft 153 kts 262°
2026-05-04 19:16 33.94594 -118.29816 1543 ft 154 kts 262°
2026-05-04 19:17 33.94466 -118.31082 1337 ft 150 kts 261°
2026-05-04 19:17 33.94339 -118.32330 1138 ft 149 kts 262°
2026-05-04 19:17 33.94211 -118.33596 930 ft 150 kts 262°
2026-05-04 19:17 33.94092 -118.34769 730 ft 133 kts 262°
2026-05-04 19:18 33.93987 -118.35804 557 ft 119 kts 261°
2026-05-04 19:18 33.93889 -118.36772 403 ft 115 kts 264°
2026-05-04 19:18 33.93791 -118.37726 246 ft 113 kts 262°
2026-05-04 19:18 33.93695 -118.38659 129 ft 109 kts 261°
2026-05-04 19:19 33.93616 -118.39403 126 ft 69 kts 265°
2026-05-04 19:19 33.93597 -118.39759 122 ft 31 kts 281°
2026-05-04 19:19 33.93650 -118.39939 123 ft 8 kts 290°
2026-05-04 19:19 33.93656 -118.39958 123 ft 0 kts 290°
2026-05-04 19:21 33.93657 -118.39963 122 ft 3 kts 289°
2026-05-04 19:21 33.93666 -118.40010 126 ft 9 kts 277°
2026-05-04 19:21 33.93665 -118.40103 121 ft 14 kts 264°
2026-05-04 19:21 33.93648 -118.40245 124 ft 20 kts 261°
2026-05-04 19:22 33.93632 -118.40378 126 ft 19 kts 262°
2026-05-04 19:22 33.93613 -118.40549 126 ft 23 kts 263°
2026-05-04 19:22 33.93593 -118.40748 124 ft 25 kts 265°
2026-05-04 19:22 33.93687 -118.40898 125 ft 28 kts 353°
2026-05-04 19:23 33.93813 -118.40918 125 ft 13 kts 352°
2026-05-04 19:23 33.93868 -118.40895 125 ft 15 kts 57°
2026-05-04 19:23 33.93883 -118.40756 123 ft 19 kts 83°
2026-05-04 19:23 33.93901 -118.40591 126 ft 20 kts 83°
2026-05-04 19:24 33.93913 -118.40472 123 ft 11 kts 83°
2026-05-04 19:24 33.93924 -118.40366 126 ft 13 kts 82°
2026-05-04 19:24 33.93958 -118.40300 123 ft 10 kts
2026-05-04 19:24 33.94045 -118.40313 124 ft 14 kts 352°
2026-05-04 19:25 33.94091 -118.40296 125 ft 7 kts 88°
2026-05-04 19:25 33.94087 -118.40260 126 ft 0 kts 98°